Theta_e
302 302 302 302 303 303 303 303 303 304 304 305 305 305 306 307 308 305 302 301 297 291 292 294 294 290 291 290 286 291 290 291 289 285 285 286 284 287 287 289 286 287 286 284 287 285 286 301 300 294 298 302 302 302
301 301 302 302 302 303 303 303 303 303 304 304 304 305 306 307 308 308 300 301 301 294 293 299 297 298 297 296 291 292 290 290 292 288 289 288 287 287 287 284 292 286 291 289 290 292 297 301 300 303 303 301 302 303
301 301 301 302 302 302 302 303 303 303 304 304 304 305 306 307 307 307 303 301 299 293 293 295 294 299 301 299 301 290 293 295 295 297 291 290 286 289 285 286 287 292 295 292 293 295 295 298 300 302 303 303 304 305
302 302 302 302 302 302 302 303 303 303 304 304 305 305 306 306 307 305 302 303 299 294 288 293 301 298 303 303 300 298 297 298 298 297 291 290 287 292 288 289 288 290 292 292 292 295 296 300 299 300 301 304 304 306
303 303 302 302 302 302 302 302 303 303 303 304 305 305 305 305 306 305 304 303 303 295 290 292 299 300 302 302 300 299 297 295 294 292 291 291 294 294 295 292 290 293 291 290 290 295 294 295 299 301 301 302 305 304
303 303 303 303 302 302 302 302 302 303 304 304 304 304 305 305 304 300 295 300 303 301 291 286 298 297 299 302 301 300 299 296 295 293 293 295 296 294 290 289 293 295 297 297 294 299 300 300 302 303 302 302 306 304
304 304 303 303 303 303 302 302 303 303 303 304 303 303 307 307 303 297 296 300 302 301 293 288 289 297 299 300 300 299 298 297 296 295 293 295 293 293 292 287 294 296 297 298 299 299 298 300 297 300 301 303 305 306
303 304 303 303 303 303 302 302 303 303 303 303 303 306 307 304 303 299 301 303 304 298 296 286 288 293 299 294 295 299 296 296 295 295 294 292 295 293 289 293 295 297 297 297 298 299 299 300 299 299 301 302 304 304
304 304 304 304 303 303 302 302 302 303 303 302 303 305 303 300 299 300 304 305 302 298 291 288 285 285 299 297 296 296 296 292 297 291 291 292 288 288 290 292 292 294 293 294 297 297 299 298 298 298 300 301 301 303
304 304 304 304 303 303 302 302 303 303 303 301 302 299 296 299 304 306 300 296 295 296 295 289 293 288 295 294 292 292 294 289 286 291 294 290 290 294 296 297 298 298 299 299 295 295 297 298 298 299 298 300 301 303
304 304 304 303 303 303 303 302 303 303 297 294 292 294 297 302 300 297 293 291 292 291 294 293 294 290 297 291 289 292 289 290 285 289 288 287 288 294 298 298 299 300 301 301 302 301 302 301 299 299 299 300 301 303
303 303 303 303 303 303 302 303 303 297 294 293 294 296 297 296 293 290 289 290 291 290 294 294 295 294 295 296 289 291 286 289 282 292 288 286 292 297 298 298 299 300 301 302 303 303 304 302 303 301 301 301 302 304
303 303 303 303 303 302 303 302 302 301 300 300 295 293 293 292 287 287 285 288 289 293 295 294 292 296 293 293 291 288 283 286 291 287 287 290 296 298 299 298 298 301 302 302 301 304 304 304 303 303 301 303 304 304
302 302 303 303 303 302 300 301 301 299 295 292 291 286 288 287 289 291 291 292 295 295 296 295 294 294 294 291 288 284 288 288 283 283 284 292 296 298 299 300 299 300 301 302 301 302 303 303 301 303 303 304 304 304
302 302 302 302 300 300 301 301 300 298 293 291 292 287 289 294 293 294 295 294 296 295 294 294 293 293 291 289 288 286 284 282 284 286 290 295 299 299 299 300 300 301 302 302 303 301 301 303 302 303 305 306 305 306
302 302 298 299 299 300 301 300 297 297 294 293 293 290 294 292 293 292 294 294 297 294 294 293 290 289 288 287 285 282 282 282 289 290 295 298 299 300 300 300 301 302 301 302 303 303 302 302 303 305 308 308 309 310
301 297 298 299 300 300 300 296 296 296 294 293 293 297 295 294 294 295 295 296 296 294 292 292 288 287 288 285 284 286 284 291 294 297 300 300 299 300 300 301 301 301 301 302 302 304 302 303 304 305 305 306 307 309
297 300 300 300 299 298 294 295 294 295 293 296 294 296 294 296 296 296 296 296 296 295 293 292 292 288 286 284 286 290 292 296 298 299 300 300 301 301 301 301 301 301 302 303 303 303 304 301 300 302 304 306 307 307
298 300 301 301 299 294 289 292 295 289 294 297 296 296 295 296 296 298 297 297 298 298 296 294 290 290 291 292 293 295 297 298 298 300 300 301 301 301 300 301 301 301 302 303 304 304 304 304 301 302 301 303 303 306
300 300 299 298 297 290 289 291 297 293 290 295 294 294 295 296 296 296 296 296 295 295 292 291 293 296 296 297 298 298 300 300 300 298 298 301 302 301 301 300 301 302 302 303 305 299 305 304 304 305 301 299 302 301
296 296 296 295 293 291 289 289 290 292 294 292 295 295 295 294 294 293 294 296 293 293 292 295 296 298 299 299 299 301 300 300 300 300 299 298 301 301 300 300 301 302 302 302 302 303 302 303 304 305 305 302 300 299
295 296 293 294 289 291 288 291 289 291 290 293 292 293 291 291 292 293 294 292 293 295 296 297 297 299 297 297 298 300 302 301 301 300 294 297 299 300 300 300 299 300 301 302 302 303 304 305 303 304 304 304 300 301
295 294 291 290 287 288 287 294 289 291 286 287 290 289 289 289 291 293 291 292 294 298 299 298 299 299 299 300 300 301 301 301 300 299 300 301 300 301 301 300 300 299 299 301 303 304 304 295 301 304 304 302 302 300
295 290 286 285 285 283 289 288 291 290 289 288 287 287 288 290 292 290 288 291 294 297 297 297 297 297 298 299 299 300 301 301 300 299 300 299 298 301 300 299 299 300 300 301 303 303 304 303 297 301 298 300 300 299
285 284 284 282 287 285 284 286 287 286 286 288 286 287 289 290 288 287 287 291 294 295 296 297 297 298 298 298 300 299 300 302 300 298 298 299 300 300 298 298 299 300 301 301 301 301 301 300 298 298 297 294 295 295
280 282 282 283 284 284 285 284 285 286 286 285 287 289 289 287 285 285 288 291 292 294 295 295 295 295 296 299 298 298 300 301 299 297 297 298 297 297 296 296 297 298 300 300 300 299 298 296 298 296 294 293 289 293
278 278 283 287 286 286 286 288 288 286 285 284 287 286 286 282 283 288 292 293 293 294 295 296 297 297 298 298 299 300 300 299 299 299 298 298 298 298 298 297 296 297 298 299 298 298 297 295 295 295 294 293 291 292
283 283 280 283 283 285 284 285 284 284 287 289 289 285 284 285 286 291 293 296 296 296 294 294 295 298 298 299 298 298 298 299 298 296 295 295 296 296 297 299 299 287 295 294 297 297 296 294 293 292 291 290 290 291
282 284 284 281 283 284 284 284 285 288 291 290 287 286 288 293 295 295 297 296 296 296 294 293 294 294 294 294 295 298 299 297 295 293 293 293 292 293 295 297 298 299 298 294 284 288 291 292 292 291 290 289 289 289
281 285 282 282 281 281 285 288 287 290 292 292 292 291 292 293 297 297 296 296 294 294 295 294 294 293 293 293 290 289 291 294 295 294 292 291 291 293 294 295 297 298 297 296 294 292 286 290 289 291 289 288 286 286
286 284 282 282 281 285 287 289 290 290 290 289 291 289 289 291 293 293 292 292 294 295 295 293 292 293 291 291 291 289 287 288 289 290 292 292 292 292 293 293 296 297 295 294 292 291 289 288 288 287 286 285 284 283
284 283 281 279 282 286 288 286 287 286 287 287 287 289 289 288 287 289 290 291 293 293 289 291 291 289 289 288 287 287 286 287 287 287 287 289 290 291 292 293 293 293 292 290 288 288 287 286 285 285 283 282 282 281
282 283 283 283 282 282 286 286 285 284 285 285 286 288 288 288 285 287 290 289 289 290 291 292 291 291 289 288 286 286 284 283 282 281 281 282 283 286 290 290 289 288 288 287 287 286 285 284 283 283 282 282 281 281
Wind_Speed
18 20 20 21 22 22 23 23 23 22 22 23 22 21 19 18 13 3 2 6 3 4 9 9 7 8 7 5 3 6 7 1 3 3 3 3 3 2 4 2 4 5 6 5 4 4 4 19 6 3 7 9 12 13
18 19 20 20 21 22 22 23 23 23 22 22 22 21 19 17 14 5 3 3 4 4 7 11 13 19 19 19 5 3 4 6 3 3 2 3 3 2 4 2 2 2 2 1 4 3 6 11 4 4 8 11 13 15
20 20 20 21 22 22 22 23 24 24 24 22 23 22 20 16 13 5 3 3 2 4 7 4 5 4 1 7 11 4 2 3 3 1 3 3 4 4 3 2 3 1 1 3 4 5 8 7 8 11 13 11 15 15
20 21 20 21 21 22 23 23 24 24 25 23 23 21 19 16 11 6 4 3 2 2 4 6 0 8 6 4 4 9 5 4 3 2 2 3 3 3 2 3 2 2 4 4 2 6 12 5 13 15 20 16 17 18
19 20 20 21 22 22 23 24 24 25 26 25 24 23 20 15 8 4 4 5 4 1 4 7 13 3 6 6 9 11 10 5 1 2 2 3 3 4 2 2 1 1 3 2 2 3 4 14 15 19 17 21 20 21
18 19 20 21 22 22 23 24 24 25 27 27 28 26 21 12 5 2 3 3 5 4 3 5 4 4 6 6 5 2 7 2 2 2 3 3 2 3 4 3 2 5 6 5 5 9 13 17 17 20 16 20 20 20
18 19 21 22 23 23 23 25 25 26 28 28 27 26 16 5 5 2 2 2 8 4 2 5 6 3 5 4 2 2 3 2 3 2 2 3 3 4 3 5 8 10 11 12 12 13 10 6 10 17 16 18 19 18
17 19 21 21 21 22 24 25 26 26 29 28 26 12 7 12 1 1 1 9 9 2 2 2 5 5 4 3 3 3 2 2 0 3 1 3 4 3 3 10 15 15 16 16 11 9 14 16 18 19 16 15 19 16
17 18 20 20 21 21 23 24 26 26 29 28 17 6 1 1 1 2 5 11 1 2 1 2 3 4 4 0 1 2 2 1 2 2 2 3 0 2 8 14 16 17 12 16 18 18 17 17 19 20 17 14 16 16
17 17 18 20 22 20 22 23 25 26 28 18 1 2 1 2 10 5 2 4 3 3 3 3 2 4 1 1 2 3 1 2 2 2 4 2 1 8 11 15 11 14 16 15 15 15 16 17 17 19 16 12 14 16
18 17 18 19 21 21 21 22 23 22 10 6 5 3 6 9 2 2 3 3 3 3 4 4 5 4 2 2 0 1 1 2 2 3 4 3 4 8 13 16 18 16 17 17 14 17 19 19 18 18 16 13 13 15
19 18 18 19 20 21 21 21 17 6 4 6 7 6 4 3 1 3 2 1 4 2 3 2 1 4 1 0 0 1 1 2 1 3 2 3 5 15 15 15 17 18 16 15 14 15 14 16 19 17 15 15 13 15
19 19 17 18 19 21 22 14 14 14 10 3 3 3 2 2 1 4 3 2 2 2 2 1 2 1 2 1 2 1 1 1 2 1 2 3 11 13 15 13 16 17 17 17 18 15 13 12 15 15 15 14 13 15
19 19 17 18 20 19 10 14 16 8 2 2 2 5 4 3 5 4 4 3 3 3 2 2 1 2 2 2 1 2 1 1 2 1 1 3 12 14 16 14 14 17 16 18 17 16 14 7 8 12 12 12 11 13
18 19 17 18 7 14 18 20 19 2 3 4 3 6 7 4 3 2 2 2 3 1 2 1 1 2 1 2 1 2 2 1 1 2 2 4 11 10 14 17 17 15 16 15 16 15 13 10 5 7 7 9 11 13
19 15 4 4 10 21 22 16 2 3 3 4 6 4 4 2 4 3 4 4 2 3 2 1 1 2 1 1 3 3 2 3 2 3 3 5 8 9 11 13 15 15 13 15 15 16 14 14 11 10 8 8 9 11
17 4 4 12 16 20 22 4 3 5 5 6 6 5 4 3 4 3 4 3 4 3 2 2 2 1 2 2 2 3 5 3 4 4 5 5 6 7 9 10 11 13 14 14 14 18 15 14 13 11 12 11 12 11
5 5 12 16 12 10 2 3 3 4 7 7 5 4 4 4 4 4 4 4 5 4 4 4 4 4 3 3 3 4 5 4 4 5 5 6 6 5 5 8 9 9 11 12 12 14 14 15 15 10 11 13 10 10
12 12 15 15 7 4 4 3 3 5 7 3 4 3 3 3 5 5 3 4 3 2 4 4 4 4 4 5 5 4 4 3 3 3 4 6 4 5 5 7 8 8 9 8 9 9 9 13 8 8 10 9 8 8
18 13 13 11 2 3 4 4 3 5 5 2 3 3 3 3 1 3 5 5 5 4 5 6 6 5 5 6 6 5 3 3 2 4 5 2 2 5 5 5 6 7 7 9 7 6 8 9 9 9 8 10 9 9
4 2 6 2 2 4 5 4 5 4 4 4 2 2 3 1 3 4 4 6 5 5 5 5 7 8 7 4 4 5 4 4 3 2 3 5 5 4 4 5 7 6 6 6 8 9 8 8 7 8 10 10 8 8
3 1 2 3 4 4 6 5 5 4 4 4 3 3 3 3 4 4 3 5 5 7 5 5 6 8 6 7 8 8 5 6 4 3 3 5 4 3 3 5 6 7 7 6 7 7 8 7 6 5 9 10 10 9
4 3 3 4 5 6 7 4 5 4 5 3 1 3 3 3 3 2 3 3 4 5 7 6 5 4 6 5 8 7 7 7 4 3 2 2 3 3 3 3 4 6 7 7 6 6 6 6 8 8 8 8 9 10
4 3 5 5 8 5 3 4 4 3 3 3 3 3 3 3 1 3 4 3 5 2 3 6 5 4 3 6 7 8 7 5 4 3 1 2 3 3 4 4 4 5 6 6 5 6 7 7 8 8 8 9 9 9
5 6 5 8 4 5 6 4 5 4 5 6 4 4 3 1 2 3 5 6 3 4 4 4 4 6 6 6 6 5 7 7 6 4 2 1 1 2 3 3 3 6 7 7 7 8 8 7 7 8 9 9 11 11
7 7 9 7 4 6 5 4 5 6 3 5 6 2 0 2 2 5 1 6 5 5 6 4 5 5 6 6 8 6 7 5 5 4 3 2 3 3 4 4 5 6 6 6 7 8 8 7 7 9 8 10 10 11
7 7 6 5 3 3 4 4 3 3 4 5 2 2 2 2 5 1 2 4 5 7 8 7 5 6 5 6 5 6 6 6 4 4 7 5 5 4 4 4 5 4 4 6 6 7 7 6 8 8 7 7 9 9
8 4 9 6 5 4 4 3 3 4 4 3 3 6 5 5 2 1 2 0 4 6 6 5 3 2 3 5 6 7 7 7 9 9 7 6 5 4 4 3 4 4 6 7 6 6 6 5 6 7 8 8 8 8
7 4 5 5 6 6 7 7 7 5 2 4 4 4 3 2 0 2 1 1 2 4 5 4 3 3 5 6 5 3 7 8 10 10 8 5 4 3 3 2 2 3 4 6 6 7 8 7 7 7 7 7 7 7
7 7 7 8 9 11 10 7 5 4 4 4 4 5 5 5 0 3 4 4 5 4 4 4 2 2 3 6 7 6 4 2 1 3 4 5 5 4 2 2 3 3 4 4 4 5 2 4 4 6 7 7 7 7
4 9 7 9 13 12 11 9 8 8 6 6 6 7 9 5 2 4 5 5 5 3 3 1 3 3 4 5 6 7 6 5 6 8 5 5 4 3 3 3 3 3 4 5 5 4 5 6 6 7 7 8 10 9
7 10 8 7 6 6 8 7 6 8 10 10 11 9 7 5 4 3 6 7 4 3 3 3 5 5 6 7 8 8 10 6 6 6 5 3 3 4 4 4 5 5 7 7 6 6 7 7 6 7 7 9 9 10
6 7 7 7 6 6 6 6 3 4 4 3 4 3 2 4 4 4 3 6 5 5 4 6 6 6 8 8 8 7 7 6 7 5 4 5 6 5 5 5 6 7 9 7 8 8 8 9 8 8 9 9 10 10
Wind_Direction
320 320 325 326 327 328 329 331 332 335 337 336 336 335 326 316 305 183 246 177 199 264 279 267 269 267 267 244 252 336 315 86 298 317 283 330 262 343 289 39 154 167 166 191 202 223 219 1 11 48 2 327 333 333
317 319 321 323 323 325 326 327 330 331 334 332 333 334 328 315 306 285 246 159 187 243 268 296 281 266 259 259 263 218 270 313 287 316 310 303 307 281 295 206 331 155 285 168 236 42 349 349 309 355 340 332 337 325
314 318 319 320 321 322 324 325 327 330 329 329 329 330 327 317 300 268 255 157 174 263 279 264 257 299 275 242 237 243 219 245 253 347 315 304 336 326 336 48 302 274 60 273 243 52 337 324 36 359 344 333 332 331
309 313 316 316 318 319 321 324 325 327 326 326 327 327 325 318 297 254 235 176 158 275 286 273 230 295 185 182 179 220 291 299 296 320 276 275 269 188 305 314 329 291 315 318 296 9 331 256 343 340 333 331 334 334
305 310 312 313 316 318 319 323 325 324 324 323 325 326 325 315 287 251 241 222 175 190 299 298 311 290 259 204 219 202 219 244 259 275 274 288 285 291 271 206 26 320 333 344 339 329 230 281 302 324 326 329 330 332
301 306 309 313 316 317 318 321 323 324 323 321 325 324 321 302 151 194 254 191 192 157 278 302 315 277 298 326 259 321 211 145 223 205 270 289 279 282 310 310 108 342 324 341 284 295 275 273 290 298 316 318 321 326
300 303 308 312 316 317 320 319 323 324 321 321 326 324 318 213 142 207 351 54 157 134 247 292 304 291 308 322 339 87 159 172 232 238 220 287 308 337 280 287 341 332 328 315 299 297 283 294 293 308 306 310 312 319
295 299 307 311 315 317 318 320 322 324 319 322 326 332 47 120 75 236 50 147 154 182 188 276 282 301 19 324 346 11 341 190 174 331 316 330 308 291 286 319 315 317 321 305 297 286 288 294 294 292 297 312 313 321
295 297 303 310 314 320 319 321 322 323 318 324 326 134 133 83 118 45 345 159 201 286 238 214 279 300 349 36 337 338 327 312 359 5 314 308 282 337 277 290 292 293 288 291 294 287 285 284 284 286 289 304 305 311
295 296 302 309 315 321 322 321 323 324 319 326 346 276 137 59 314 95 224 179 207 206 216 248 206 271 295 305 51 338 28 16 357 31 293 284 303 294 322 309 305 313 310 286 281 279 276 273 274 280 286 296 296 300
300 298 299 308 312 319 322 321 323 327 337 359 357 323 333 303 181 199 216 216 161 226 204 229 214 278 167 289 21 88 330 346 5 21 341 333 315 331 331 333 332 320 315 309 288 266 267 267 268 274 280 285 288 291
305 303 299 301 309 314 321 318 317 347 311 288 302 300 274 275 181 238 229 206 216 278 193 227 184 212 167 211 255 188 243 222 161 328 270 344 304 329 335 334 324 326 330 329 324 307 280 255 254 261 270 280 282 285
307 303 298 299 303 310 315 305 313 318 310 254 197 235 260 236 248 217 220 213 252 201 221 194 329 187 147 233 217 215 162 224 337 46 13 275 319 330 333 333 326 324 338 337 340 335 316 262 244 247 263 273 281 283
309 303 299 296 302 306 313 311 325 333 307 269 247 277 215 219 235 200 191 203 231 234 267 282 223 238 146 195 192 248 93 190 89 39 9 276 329 332 329 332 328 336 340 338 344 340 346 315 254 253 260 269 275 278
311 305 302 298 284 320 319 323 323 222 189 236 205 235 231 243 263 249 220 259 223 251 182 183 156 247 158 194 181 257 208 93 243 220 237 273 318 329 325 328 329 334 342 342 346 354 349 1 312 284 286 279 275 276
313 309 268 276 329 319 315 322 266 166 225 222 233 249 215 253 250 211 210 246 188 148 129 132 153 240 212 215 193 181 179 230 234 218 234 281 319 321 325 330 333 332 330 338 351 1 359 357 352 351 337 312 302 306
311 232 284 309 318 307 306 262 207 222 230 225 236 221 235 275 257 252 203 215 142 178 215 162 244 276 121 245 222 192 213 220 228 271 290 296 291 304 318 330 346 340 337 342 348 1 5 3 11 2 358 350 331 329
260 271 291 295 320 311 262 225 246 243 240 233 235 215 193 223 236 243 220 185 177 189 165 206 126 183 215 225 231 222 230 259 265 270 292 303 307 316 326 338 346 346 345 355 352 356 13 13 14 6 355 347 345 347
298 296 294 290 310 306 286 248 214 262 245 260 251 228 220 237 226 250 238 184 190 142 148 179 204 197 208 208 231 230 232 217 274 302 298 306 297 323 337 352 352 353 351 4 358 4 2 14 2 7 0 358 351 357
304 293 292 300 228 240 262 255 219 255 262 269 253 230 219 227 244 223 227 189 178 183 195 209 213 214 205 215 204 214 209 180 205 295 313 331 318 330 349 347 346 339 348 351 357 4 9 12 3 6 9 5 8 11
302 307 339 160 193 222 281 276 251 236 280 261 280 237 255 232 234 221 226 160 186 212 228 221 227 228 214 207 205 192 192 187 200 218 300 307 337 323 322 341 346 351 3 359 354 356 3 11 357 4 18 14 358 3
247 316 289 219 233 236 254 232 247 301 258 266 274 221 248 248 247 222 139 198 228 227 212 214 219 228 206 203 199 194 185 188 175 201 238 264 301 322 332 350 342 348 356 9 359 357 0 4 354 347 19 16 16 5
179 185 219 228 235 228 253 183 227 223 242 242 265 235 222 232 228 137 231 227 258 231 222 228 229 214 229 194 167 169 183 177 161 179 221 269 316 312 297 340 353 352 347 358 351 355 6 357 7 7 14 16 17 14
149 230 229 220 202 252 253 234 217 242 243 237 228 245 218 226 141 233 242 251 263 269 213 213 184 160 138 163 178 179 161 134 140 161 130 330 330 16 6 8 6 11 355 330 343 358 11 20 16 22 15 18 9 9
238 219 218 231 222 228 224 234 214 217 239 203 229 249 230 157 228 246 258 278 259 244 234 209 210 217 209 192 170 146 144 164 177 156 121 256 350 47 46 41 44 25 3 7 9 8 14 18 25 26 33 23 16 15
237 212 204 206 211 214 219 237 215 225 212 204 228 241 123 172 231 249 271 351 337 354 343 291 238 206 204 194 160 162 177 181 151 140 123 94 58 44 46 40 41 47 21 15 12 15 22 14 14 26 35 29 17 15
223 234 212 231 242 239 251 252 261 271 247 217 197 177 152 220 242 237 88 32 348 325 316 299 260 210 186 152 138 135 139 152 133 117 123 111 88 71 48 48 55 34 3 27 34 33 28 24 8 13 26 36 29 19
225 232 209 205 204 221 242 256 246 236 232 202 187 189 184 219 260 183 203 162 350 354 345 341 348 73 122 134 127 131 123 121 113 114 113 102 87 82 83 103 94 75 52 26 24 39 32 33 40 33 30 27 25 24
215 197 203 225 219 211 218 223 232 226 213 195 207 203 227 205 228 282 322 285 336 20 354 319 341 81 93 91 92 118 146 152 153 165 171 146 150 100 43 35 59 89 95 87 52 40 44 45 42 34 36 39 26 29
216 191 208 223 231 239 229 216 243 247 231 244 291 268 261 264 354 5 323 331 345 352 0 309 214 229 179 143 130 101 49 56 103 164 177 160 132 117 94 50 61 83 98 96 88 87 75 84 75 55 36 36 39 29
169 183 219 238 251 252 256 254 257 264 257 245 237 247 258 264 115 43 17 342 318 326 42 128 102 101 132 131 125 123 105 48 46 56 68 99 107 111 84 46 34 66 79 81 74 68 78 73 66 67 60 50 42 43
191 202 212 231 256 254 245 248 231 241 248 237 242 235 240 223 208 63 4 345 346 46 53 97 113 106 99 94 87 80 74 88 67 51 35 50 85 81 87 96 96 93 91 85 81 78 64 68 78 82 75 64 58 55
209 201 216 247 253 245 227 210 237 240 200 191 187 144 122 151 100 42 24 10 9 23 77 99 108 100 90 87 94 92 82 85 91 85 86 65 57 63 89 91 92 96 96 96 95 93 92 94 87 83 81 79 75 71